Вернуться в каталог

SOLRAD 1

GREB

АктивенНаукаLEO
NORAD 46·PAYLOAD·🇺🇸 United States

Запущен Jun 22, 1960 с Cape Canaveral Space Force Station

Loading…

Ближайшие Пролёты (ближайшие 24 часа)

TLE

СвежийSource: Space-Track

Эпоха: Sep 7, 2026, 12:57 UTC

1 00046U 60007B   26250.53989230  .00000661  00000-0  13847-3 0  9996
2 00046  66.6902   3.6904 0200713 232.7656 125.4998 14.54968273468989

Отслеживайте SOLRAD 1 в реальном времени с AllMySat

Download on the App Store